Погода в Симферополе

Погода в Симферополе : погода сейчас, прогноз погоды и архив. Всё, что Вы хотите узнать о погоде в Симферополе!

Хотите узнать прогноз погоды в Симферополе? Тогда Вам сюда: Погода в Симферополе

Поиск расширенной информации на нашем сайте:

Полезная информация:

Другие новости

Новости СМИ2

Главная страница сайта

Новости сайта

03.07.2017

Напоминаем, что на нашем специализированном сайте Метеоцентр.Азия вы можете получить высокодетализированные автоматические прогнозы погоды по пунктам России, СНГ и мира в авиационном формате (включающие направление и скорость ветра, видимость, явления погоды, количество и форму облачности, нижнюю и верхнюю границу облачности).

Рекомендуем:

Погода в Симферополе - сегодня

Время (UTC), дата Ветер
(°,м/с) 
Видим.   Явления Облачность Т
(°С)
Тd
(°С)
f(%) Тe
(°С)
Pmin
(гПа)
dP
(гПа)
Po
(мм)
O2
(г/м3)
Тmin Tmax R s Состояние
почвы
09 15.09.19 030 (СВ) 7-12{13}  10 км    ясно 
+21.8 +3.5 30 +22  1023.1  -0.4  752  280           
12 15.09.19 020 (С) 6{12}  10 км    ясно 
+23 +0.2 22 +23  1022.3  -0.8  751  279           
15 15.09.19 050 (СВ) 4{11}  10 км    ясно 
+21.2 -0.7 23 +21  1022.3  -0.1  751  281           
18 15.09.19 110 (В) 10 км    ясно 
+16.4 +0.5 34 +17  1022.9  0.3  751  285    +23.6       
21 15.09.19 120 (ЮВ) 10 км    ясно 
+15.4 +0 35 +15  1021.8  -1.2  750  286           
00 16.09.19 тихо ()   10 км    ясно 
+9.8 +1.2 55 +10  1021.5  -0.7  750  291           
03 16.09.19 120 (ЮВ) 10 км    ясно 
+10.9 +0.3 48 +11  1020.4  -1  749  290  +9.1         
06 16.09.19 150 (ЮВ) 10 км    ясно 
+18.3 +0 29 +19  1019.2  -0.6  748  283  +9.1        сухая 
09 16.09.19 310 (СЗ) 10 км    1/0 верхняя 
[Ci fib]
+22.6 -2.2 19 +23  1017.2  -1.7  747  278           
12 16.09.19 260 (З) 6{11}  10 км    ясно 
+23.2 +3.2 27 +23  1016.1  -1  746  277           
15 16.09.19 250 (З) 6{10}  10 км    ясно 
+20.6 +7.9 44 +21  1014.8  -1.4  745  278           
18 16.09.19 200 (Ю) 10 км    ясно 
+14.5 +10.5 77 +16  1015.1  -0.2  745  283    +24.9       
21 16.09.19 170 (Ю) 10 км    ясно 
+13 +10.9 87 +15  1015.2  745  285           
00 17.09.19 180 (Ю) 10 км    ясно 
+12.4 +10.5 88 +14  1014.3  -0.9  745  285           
03 17.09.19 170 (Ю) 10 км    ясно 
+13.2 +10.7 85 +15  1013.2  -1  744  284  +12.2         
06 17.09.19 200 (Ю) 10 км    8/8 540 м 
[Sc]
+19.5 +13.7 69 +27  1012.6  -0.1  744  277  +12.2         
09 17.09.19 240 (ЮЗ) 7-10{10}  10 км    8/1 1000 м верхняя 
[Cu hum|Ci]
+23.8 +13.9 54 +31  1011.9  -0.4  743  273           
12 17.09.19 240 (ЮЗ) 7-10{12}  10 км    10/0 средняя, верхняя 
[As trans|Ci sp]
+23.6 +13.5 53 +30  1011.3  -0.6  743  273           
15 17.09.19 220 (ЮЗ) 7-10  10 км    9/5 800 м кучево-дожд., средняя 
[Cb calv|Ac trans]
+21.6 +16.6 73 +33  1010.6  -0.8  742  274           
18 17.09.19 210 (ЮЗ) 10 км    10/4 750 м кучево-дожд., средняя 
[Cb calv|Ac und]
+19.1 +16.9 87 +32  1011.8  743  276    +25.5       
21 17.09.19 190 (Ю) 10 км    4/0 средняя 
[Ac trans]
+16.7 +14.7 88 +25  1012.2  0.2  743  279           
00 18.09.19 180 (Ю) 10 км    6/0 средняя 
[Ac trans]
+17.9 +16.1 89 +29  1011.5  -0.6  743  277           
03 18.09.19 170 (Ю) 10 км    3/0 средняя 
[Ac trans]
+17.3 +10 62 +19  1009.7  -1.8  741  279  +16.4         
06 18.09.19 220 (ЮЗ) 11-15{14}  10 км    1/0 средняя 
[Ac trans]
+23.1 +16.6 67 +35  1009.2  -0.1  741  272  +16.4         
09 18.09.19 250 (З) 10-14{15}  10 км    8/3 1000 м средняя 
[Cu hum|Ac trans]
+25.7 +15.4 53 +35  1009.9  0.9  742  270           
Время (UTC), дата Ветер
(°,м/с) 
Видим.   Явления Облачность Т
(°С)
Тd
(°С)
f(%) Тe
(°С)
Pmin
(гПа)
dP
(гПа)
Po
(мм)
O2
(г/м3)
Тmin Tmax R s Состояние
почвы

Для получения пояснительной информации подведите курсор к названию столбца.

ПОГОДА в Симферополе - архив

Всё, что Вы хотите узнать о погоде в Симферополе - удобно и подробно!

Выберите нужную дату (начиная с 1 января 2018* года) и нажмите кнопку "Найти".
Будут отображены архивные сводки погоды по пункту Симферополь, начиная с указанной даты.


Отображать данные в формате CSV (для использования в таблицах Excel)


Внимание! Наш архив погоды предназначен исключительно для личного некоммерческого использования в познавательных целях. Если Вам необходимы официальные справки о состоянии погоды (для производственных, юридических, коммерческих и т.п. целей), обращайтесь в органы Росгидромета.

*Примечание: данная дата относится к архиву по метеостанциям СССР (Россия, СНГ, Балтия).
Архив по метеостанциям Зарубежной Европы и Азии (кроме Китая) хранится 10 дней, по другим регионам земного шара (Китай, Африка, Америка, Австралия, Океания) - 1 день.

Симферополь - район местоположения метеостанции


Название, широта, долгота, высота метеостанции:
Симферополь 44.7°ш. 34.1°д. 181 м над ур. моря [Российская Федерация]

Дополнительная информация

В oтличие oт бoльшинства пoгoдных сайтoв мы публикуем пoдрoбную метеoинфoрмацию в детальнoм прoфессиoнальнoм фoрмате.

Характеристики температуры и влажнoсти вoздуха измеряются на высoте 2 м в тени вдали oт зданий и деревьев.
Скoрoсть ветра измеряется на высoте 10 м (на урoвне рoста челoвека скoрoсть ветра ниже в 1.5-2 раза). Если метеoстанция нахoдится в гoрoде или в лесу, тo скoрoсть ветра занижена на 2-4 м/с пo сравнению с oткрытым местoм. Скoрoсть ветра над акватoриями крупных рек и oзёр, а также на вершинах хoлмoв на 2-5 м/с выше, чем в oбычных услoвиях.
Атмoсфернoе давление в разных тoчках местнoсти мoжет значительнo oтличаться oт давления на метеoстанции, в зависимoсти oт услoвий рельефа (при пoдъёме на 10 м давление пoнижается примернo на 1 мм рт.ст.).